{"data":{"norad_id":52791,"epoch":"2026-09-20T17:38:41.047584Z","epoch_age_seconds":111321,"freshness":"FRESH","line1":"1 52791U 22058G   26263.73519731  .00000882  00000+0  13922-3 0  9993","line2":"2 52791  49.9878 120.1016 0012623 100.3774 259.8586 14.81612197234099","mean_motion":14.81612197,"eccentricity":0.0012623,"inclination_deg":49.9878,"raan_deg":120.1016,"arg_perigee_deg":100.3774,"mean_anomaly_deg":259.8586,"bstar":0.00013922,"rev_number":23409,"period_min":97.191424511471,"perigee_km":615.40072714169,"apogee_km":633.07892768017,"semimajor_km":7002.3768274109,"source":"CELESTRAK","updated_at":"2026-09-21T09:00:08.721303Z"}}